Location: Niagara
(43.2500°N, 79.0670°W)
Time: 22:36:05
(UTC-04:00)

OTV 5 (USA 277) - Pass Details

Date: 12 October 2017
Orbit: 404 x 417 km, 43.0° (Epoch: 07 September)

Event Time Altitude Azimuth Distance (km) Brightness Sun altitude
Rises 19:37:16 0° 242° (WSW) 2,348 ? -11.6°
Reaches altitude 10° 19:39:24 10° 237° (WSW) 1,487 ? -12.0°
Maximum altitude 19:42:40 49° 161° (SSE) 547 ? -12.6°
Enters shadow 19:44:25 24° 97° (E) 921 ? -12.9°
